Terminal Aerodrome Forecast
Issued by NWS

Home | Current Version | Previous Version | Text Only | Print | Product List | Glossary On
Versions: 1 2 3 4 5 6 7 8 9 10 11 12 13 14 15 16 17 18 19 20 21 22 23 24 25 26 27 28 29 30 31 32 33 34 35 36 37 38 39 40 41 42 43 44 45 46 47 48 49 50
000
FTAK31 PANC 292002 AAB
TAFASN
TAF AMD
PASN 292002Z 2920/3018 VRB03KT 3SM BR BKN003
      TEMPO 2920/2922 1SM BR
     FM292300 VRB03KT 5SM BR OVC004
     FM300400 VRB03KT 1/2SM FG VV002=

USA.gov is the U.S. government's official web portal to all federal, state and local government web resources and services.